• In Russia
  • List of Countries
  • For 7 days
  • Water Temperature
  • Weather Map
  • Weather Widgets
  • user-avatar
    Login

    Hourly Weather Bogota

    Today, 22 September, Sunday

    Time Temperature Precipitation Wind Pressure Humidity
    00:00 +9°C° 0 mm 0 mps 547 mmHg 85%
    01:00 +9°C° 0 mm 0 mps 547 mmHg 85%
    02:00 +9°C° 0 mm 0 mps 547 mmHg 86%
    03:00 +9°C° 0 mm 0 mps 547 mmHg 86%
    04:00 +9°C° 0 mm 1 mps 546 mmHg 87%
    05:00 +10°C° 0 mm 1 mps 547 mmHg 86%
    06:00 +11°C° 0 mm 1 mps 548 mmHg 85%
    07:00 +11°C° 0 mm 1 mps 549 mmHg 84%
    08:00 +13°C° 0.1 mm 1 mps 550 mmHg 80%
    09:00 +15°C° 0.1 mm 1 mps 551 mmHg 75%
    10:00 +16°C° 0.1 mm 1 mps 552 mmHg 71%
    11:00 +17°C° 0.6 mm 2 mps 551 mmHg 70%
    12:00 +17°C° 0.6 mm 2 mps 551 mmHg 70%
    13:00 +17°C° 0.6 mm 2 mps 550 mmHg 70%
    14:00 +17°C° 0.8 mm 2 mps 549 mmHg 71%
    15:00 +17°C° 0.8 mm 2 mps 549 mmHg 72%
    16:00 +16°C° 0.8 mm 1 mps 548 mmHg 72%
    17:00 +15°C° 0.5 mm 1 mps 548 mmHg 78%
    18:00 +13°C° 0.5 mm 1 mps 547 mmHg 84%
    19:00 +11°C° 0.5 mm 1 mps 547 mmHg 90%
    20:00 +11°C° 0 mm 1 mps 547 mmHg 90%
    21:00 +11°C° 0 mm 1 mps 547 mmHg 89%
    22:00 +10°C° 0 mm 1 mps 547 mmHg 89%
    23:00 +10°C° 0 mm 1 mps 547 mmHg 88%

    Tomorrow, 23 September, Monday

    Time Temperature Precipitation Wind Pressure Humidity
    00:00 +10°C° 0 mm 1 mps 547 mmHg 87%
    01:00 +10°C° 0 mm 1 mps 547 mmHg 86%
    02:00 +10°C° 0 mm 1 mps 547 mmHg 85%
    03:00 +10°C° 0 mm 1 mps 547 mmHg 85%
    04:00 +10°C° 0 mm 1 mps 547 mmHg 84%
    05:00 +9°C° 0.1 mm 0 mps 548 mmHg 83%
    06:00 +10°C° 0.1 mm 0 mps 548 mmHg 83%
    07:00 +11°C° 0.1 mm 0 mps 549 mmHg 82%
    08:00 +14°C° 0 mm 1 mps 550 mmHg 75%
    09:00 +16°C° 0 mm 1 mps 551 mmHg 67%
    10:00 +19°C° 0 mm 1 mps 552 mmHg 60%
    11:00 +18°C° 0.4 mm 2 mps 552 mmHg 62%
    12:00 +18°C° 0.4 mm 2 mps 551 mmHg 65%
    13:00 +18°C° 0.4 mm 2 mps 550 mmHg 67%
    14:00 +17°C° 0.6 mm 2 mps 549 mmHg 71%
    15:00 +16°C° 0.6 mm 2 mps 549 mmHg 76%
    16:00 +15°C° 0.6 mm 1 mps 548 mmHg 80%
    17:00 +14°C° 0.3 mm 1 mps 547 mmHg 83%
    18:00 +13°C° 0.3 mm 1 mps 547 mmHg 86%
    19:00 +11°C° 0.3 mm 0 mps 547 mmHg 89%
    20:00 +11°C° 0.1 mm 0 mps 547 mmHg 88%
    21:00 +11°C° 0.1 mm 0 mps 548 mmHg 87%
    22:00 +11°C° 0.1 mm 0 mps 548 mmHg 86%
    23:00 +10°C° 0 mm 0 mps 548 mmHg 86%

    Day after tomorrow, 24 September, Tuesday

    Time Temperature Precipitation Wind Pressure Humidity
    00:00 +9°C° 0 mm 0 mps 547 mmHg 86%
    01:00 +9°C° 0 mm 0 mps 547 mmHg 87%
    02:00 +9°C° 0 mm 0 mps 547 mmHg 87%
    03:00 +8°C° 0 mm 0 mps 547 mmHg 87%
    04:00 +8°C° 0 mm 0 mps 546 mmHg 87%
    05:00 +9°C° 0 mm 0 mps 547 mmHg 86%
    06:00 +10°C° 0 mm 0 mps 548 mmHg 84%
    07:00 +11°C° 0 mm 0 mps 549 mmHg 83%
    08:00 +13°C° 0 mm 0 mps 550 mmHg 75%
    09:00 +16°C° 0 mm 1 mps 551 mmHg 67%
    10:00 +19°C° 0 mm 1 mps 552 mmHg 59%
    11:00 +18°C° 0.3 mm 2 mps 552 mmHg 62%
    12:00 +18°C° 0.3 mm 2 mps 551 mmHg 64%
    13:00 +18°C° 0.3 mm 2 mps 550 mmHg 67%
    14:00 +17°C° 0.8 mm 2 mps 549 mmHg 71%
    15:00 +16°C° 0.8 mm 2 mps 549 mmHg 76%
    16:00 +15°C° 0.8 mm 1 mps 548 mmHg 81%
    17:00 +14°C° 1 mm 1 mps 548 mmHg 84%
    18:00 +13°C° 1 mm 1 mps 547 mmHg 88%
    19:00 +11°C° 1 mm 0 mps 547 mmHg 91%
    20:00 +11°C° 0.2 mm 0 mps 548 mmHg 91%
    21:00 +11°C° 0.2 mm 0 mps 548 mmHg 91%
    22:00 +10°C° 0.2 mm 0 mps 548 mmHg 90%
    23:00 +10°C° 0 mm 0 mps 548 mmHg 90%

    25 September, Wednesday

    Time Temperature Precipitation Wind Pressure Humidity
    00:00 +10°C° 0 mm 0 mps 548 mmHg 90%
    01:00 +10°C° 0 mm 0 mps 548 mmHg 89%
    02:00 +10°C° 0 mm 0 mps 548 mmHg 90%
    03:00 +10°C° 0 mm 0 mps 547 mmHg 90%
    04:00 +10°C° 0 mm 0 mps 547 mmHg 90%
    05:00 +10°C° 0 mm 0 mps 548 mmHg 89%
    06:00 +11°C° 0 mm 0 mps 549 mmHg 88%
    07:00 +11°C° 0 mm 0 mps 549 mmHg 87%
    08:00 +13°C° 0.2 mm 1 mps 550 mmHg 84%
    09:00 +14°C° 0.2 mm 1 mps 550 mmHg 82%
    10:00 +14°C° 0.2 mm 1 mps 551 mmHg 79%
    11:00 +15°C° 0.6 mm 1 mps 550 mmHg 77%
    12:00 +16°C° 0.6 mm 1 mps 550 mmHg 75%
    13:00 +16°C° 0.6 mm 1 mps 550 mmHg 73%
    14:00 +16°C° 0.8 mm 1 mps 549 mmHg 76%
    15:00 +15°C° 0.8 mm 1 mps 549 mmHg 79%
    16:00 +15°C° 0.8 mm 1 mps 548 mmHg 82%
    17:00 +14°C° 0.6 mm 1 mps 548 mmHg 85%
    18:00 +13°C° 0.6 mm 1 mps 547 mmHg 87%
    19:00 +11°C° 0.6 mm 1 mps 547 mmHg 90%
    20:00 +11°C° 0 mm 1 mps 547 mmHg 90%
    21:00 +11°C° 0 mm 1 mps 548 mmHg 89%
    22:00 +11°C° 0 mm 1 mps 548 mmHg 88%
    23:00 +10°C° 0 mm 0 mps 548 mmHg 88%

    26 September, Thursday

    Time Temperature Precipitation Wind Pressure Humidity
    00:00 +9°C° 0 mm 0 mps 547 mmHg 88%
    01:00 +9°C° 0 mm 0 mps 547 mmHg 88%
    02:00 +9°C° 0 mm 0 mps 547 mmHg 88%
    03:00 +9°C° 0 mm 0 mps 547 mmHg 87%
    04:00 +10°C° 0 mm 1 mps 547 mmHg 87%
    05:00 +10°C° 0 mm 0 mps 547 mmHg 85%
    06:00 +10°C° 0 mm 0 mps 548 mmHg 83%
    07:00 +11°C° 0 mm 0 mps 549 mmHg 82%
    08:00 +14°C° 0 mm 1 mps 550 mmHg 72%
    09:00 +16°C° 0 mm 1 mps 551 mmHg 63%
    10:00 +19°C° 0 mm 1 mps 552 mmHg 54%
    11:00 +18°C° 0.1 mm 2 mps 552 mmHg 53%
    12:00 +18°C° 0.1 mm 2 mps 551 mmHg 51%
    13:00 +19°C° 0.1 mm 2 mps 550 mmHg 50%
    14:00 +18°C° 0.2 mm 2 mps 550 mmHg 54%
    15:00 +17°C° 0.2 mm 2 mps 549 mmHg 59%
    16:00 +16°C° 0.2 mm 2 mps 548 mmHg 64%
    17:00 +14°C° 0.1 mm 1 mps 548 mmHg 72%
    18:00 +13°C° 0.1 mm 1 mps 547 mmHg 80%
    19:00 +11°C° 0.1 mm 1 mps 546 mmHg 88%
    20:00 +11°C° 0 mm 1 mps 547 mmHg 85%
    21:00 +10°C° 0 mm 1 mps 547 mmHg 83%
    22:00 +10°C° 0 mm 1 mps 547 mmHg 80%
    23:00 +10°C° 0 mm 1 mps 547 mmHg 80%

    27 September, Friday

    Time Temperature Precipitation Wind Pressure Humidity
    00:00 +10°C° 0 mm 1 mps 547 mmHg 79%
    01:00 +9°C° 0 mm 1 mps 546 mmHg 78%
    02:00 +9°C° 0 mm 1 mps 546 mmHg 77%
    03:00 +9°C° 0 mm 1 mps 546 mmHg 76%
    04:00 +8°C° 0 mm 0 mps 546 mmHg 75%
    05:00 +9°C° 0 mm 0 mps 547 mmHg 74%
    06:00 +10°C° 0 mm 0 mps 548 mmHg 72%
    07:00 +11°C° 0 mm 0 mps 549 mmHg 70%
    08:00 +14°C° 0 mm 1 mps 550 mmHg 65%
    09:00 +15°C° 0 mm 1 mps 551 mmHg 59%
    10:00 +18°C° 0 mm 1 mps 552 mmHg 54%
    11:00 +18°C° 0.2 mm 1 mps 551 mmHg 57%
    12:00 +18°C° 0.2 mm 2 mps 551 mmHg 59%
    13:00 +18°C° 0.2 mm 2 mps 550 mmHg 62%
    14:00 +17°C° 0.8 mm 2 mps 549 mmHg 68%
    15:00 +16°C° 0.8 mm 2 mps 549 mmHg 75%
    16:00 +15°C° 0.8 mm 1 mps 548 mmHg 81%
    17:00 +14°C° 0.5 mm 1 mps 548 mmHg 84%
    18:00 +13°C° 0.5 mm 1 mps 548 mmHg 87%
    19:00 +12°C° 0.5 mm 1 mps 547 mmHg 91%
    20:00 +12°C° 0 mm 1 mps 547 mmHg 90%
    21:00 +11°C° 0 mm 1 mps 547 mmHg 89%
    22:00 +10°C° 0 mm 0 mps 547 mmHg 88%
    23:00 +9°C° 0 mm 0 mps 547 mmHg 87%
    Show more